Regional Weather Roundup
Issued by NWS

Home | Current Version | Previous Version | Graphics & Text | Print | Product List | Glossary On
Versions: 1 2 3 4 5 6 7 8 9 10 11 12 13 14 15 16 17 18 19 20 21 22 23 24 25 26 27 28 29 30 31 32 33 34 35 36 37 38 39 40 41 42 43 44 45 46 47 48 49 50
000
ASUS43 KMKX 211400
RWRWI

WISCONSIN REGIONAL WEATHER ROUNDUP
NATIONAL WEATHER SERVICE MILWAUKEE/SULLIVAN WI
900 AM CDT MON AUG 21 2017

NOTE: "FAIR" INDICATES FEW OR NO CLOUDS BELOW 12,000 FEET WITH NO
SIGNIFICANT WEATHER AND/OR OBSTRUCTIONS TO VISIBILITY.

WIZ001-002-006>008-014>016-023>028-211500-
NORTHWEST WISCONSIN

CITY           SKY/WX    TMP DP  RH WIND       PRES   REMARKS
SUPERIOR ARPT    N/A     60  58  95 CALM      30.05F
ASHLAND        CLOUDY    64  60  87 S3        30.06F
HAYWARD        CLOUDY    64  57  78 S5        30.07F
SIREN          CLOUDY    62  58  84 SE6       30.06F
CUMBERLAND     MOSUNNY   61  55  82 CALM      30.07F
RICE LAKE      MOSUNNY   64  58  79 CALM      30.07F
CHETEK         MOSUNNY   65  60  81 E6        30.06F
LADYSMITH      CLOUDY    67  61  80 E3        30.09F
EAU CLAIRE     NOT AVBL
MENOMONIE      RAIN      67  62  85 NW7       30.05F
NEW RICHMOND   CLOUDY    64  59  86 SE3       30.05F
OSCEOLA        CLOUDY    64  64  99 CALM      30.09R
$$

WIZ003>005-009-010-017-018-211500-
NORTH CENTRAL WISCONSIN

CITY           SKY/WX    TMP DP  RH WIND       PRES   REMARKS
MANITOWISH WTR MOSUNNY   62  62  98 CALM      30.08F
ARBOR VITAE    CLOUDY    65  59  79 CALM      30.09S
WOODRUFF       CLOUDY    65  59  79 CALM      30.09S
RHINELANDER    CLOUDY    69  58  67 CALM      30.11R
EAGLE RIVER    MOSUNNY   67  55  65 NE5       30.09F
LAND O LAKES   MOSUNNY   64  57  79 CALM      30.10F
PHILLIPS       CLOUDY    62  60  94 CALM      30.09S
TOMAHAWK         N/A     64  61  88 CALM      30.11R
MEDFORD        CLOUDY    66  62  86 CALM      30.08F
MERRILL        CLOUDY    66  64  94 CALM      30.09F
$$

WIZ029-030-035-036-043>047-211500-
CENTRAL WISCONSIN

CITY           SKY/WX    TMP DP  RH WIND       PRES   REMARKS
WAUSAU         CLOUDY    68  65  90 E3        30.06F
MOSINEE        NOT AVBL
MARSHFIELD     CLOUDY    68  65  90 SE5       30.06F FOG
STEVENS POINT  LGT RAIN  66  66 100 CALM      30.09R
WAUPACA        LGT RAIN  69  68  98 CALM      30.08S
WAUTOMA        CLOUDY    67  64  90 CALM      30.08F
WISC RAPIDS    CLOUDY    69  68  96 CALM      30.08F
CAMP DOUGLAS   NOT AVBL
$$

WIZ011>013-019>022-031-037>040-048>050-211500-
NORTHEAST WISCONSIN

CITY           SKY/WX    TMP DP  RH WIND       PRES   REMARKS
ANTIGO         CLOUDY    66  62  89 N6        30.09S
SHAWANO        CLOUDY    70  67  92 CALM      30.07R
OCONTO         PTSUNNY   71  66  85 CALM      30.05S
STURGEON BAY   CLOUDY    72  69  90 SW3       30.06S
GREEN BAY      CLOUDY    71  70  96 W5        30.06S
MANITOWOC      NOT AVBL
APPLETON       CLOUDY    70  68  94 VRB5      30.06S
CLINTONVILLE   CLOUDY    68  66  94 CALM      30.06S
OSHKOSH        CLOUDY    71  67  87 W3        30.06F
$$

WIZ032>034-041-042-053>061-211500-
SOUTHWEST WISCONSIN

CITY           SKY/WX    TMP DP  RH WIND       PRES   REMARKS
LA CROSSE      CLOUDY    72  67  84 SE7       30.05R
SPARTA         CLOUDY    62  62  99 CALM      30.07S
VIROQUA        CLOUDY    67  67 100 CALM      30.09R
BOSCOBEL       CLOUDY    66  64  93 E5        30.07F
PRAIRIE DU CHI CLOUDY    70  65  82 N12       30.04R
PLATTEVILLE    CLOUDY    68  68 100 CALM      30.08F
$$

WIZ056-057-062-063-064-067-068-211500-
SOUTH CENTRAL WISCONSIN

CITY           SKY/WX    TMP DP  RH WIND       PRES   REMARKS
REEDSBURG      CLOUDY    64  64 100 CALM      30.07S
BARABOO/DELLS  CLOUDY    67  65  96 CALM      30.07F
LONE ROCK      CLOUDY    65  65 100 CALM      30.08F
MINERAL POINT  CLOUDY    68  68 100 CALM      30.09F FOG
MADISON        CLOUDY    69  68  96 CALM      30.07F
MIDDLETON      CLOUDY    69  69 100 NW3       30.08F
WATERTOWN      CLOUDY    68  68 100 SW3       30.07S FOG
MONROE         CLOUDY    70  68  94 SW9       30.10R
JANESVILLE     MOSUNNY   72  72 100 CALM      30.08S
$$

WIZ051-052-058>065-066-070>072-211500-
SOUTHEAST WISCONSIN

CITY           SKY/WX    TMP DP  RH WIND       PRES   REMARKS
MILWAUKEE      PTSUNNY   76  70  82 SW7       30.05F
WAUKESHA       SUNNY     70  70 100 SW6       30.09R
MILWAUKEE/TIMM SUNNY     72  66  83 CALM      30.06F
RACINE         CLOUDY    76  71  85 W8        30.06F
KENOSHA        CLOUDY    76  70  82 VRB7      30.07R
FOND DU LAC    CLOUDY    72  68  87 CALM      30.07F
SHEBOYGAN      PTSUNNY   73  70  90 CALM      30.05F
WEST BEND      PTSUNNY   68  68 100 CALM      30.06S
JUNEAU         CLOUDY    67  67  99 CALM      30.08F FOG
$$

LSZ147-162-211500-
LAKE SUPERIOR

STATION/POSITION TIME  TEMP    WIND        PRES    WAVE
                       AIR SEA DIR/SP/G            HT/PER
                 (UTC) (F)     (DEG/KT/KT) (MB)    (FT/S)
W MID LAKE BUOY  1250   61 59  280/  6/  8 1017.5R   0
DEVILS ISLAND    1300   62     250/  5/  6 1017.9R
SAXON HARBOR     1240   60     210/  5/  7 1017.3F
$$

LMZ867-665-643>646-211500-
LAKE MICHIGAN

STATION/POSITION TIME  TEMP    WIND        PRES    WAVE
                       AIR SEA DIR/SP/G            HT/PER
                 (UTC) (F)     (DEG/KT/KT) (MB)    (FT/S)
S GREEN BAY BUOY 1330   70 71  260/  2/  2 1017.6R
N MID LAKE BUOY  1250   68 67  220/  4/  4 1017.9R   2/ 5
NORTHPORT PIER   1240   72     310/  5/  6 1017.3R
KEWAUNEE LAKESHO 1330   71     290/  3/  6 1016.6F
SHEBOYGAN LAKESH 1300   72     270/  4/  5 1017.4R
PORT WASHINGTON  1230   71      CALM  /  1 1018.6R
ATWATER BUOY     1209   69 70  300/  2/  2 1018.1R
MILWAUKEE LAKESH 1330   73      80/  3/  3   N/A
S MID LAKE BUOY  1250   72 71  220/  6/  6 1017.8R   1/ 3
KENOSHA   LAKESH 1300   74     260/  5/  6 1017.6
$$

TC  - TEMPERATURE IN CELSIUS
VSB - VISIBILITY IN STATUTE MILES
WCI - WIND CHILL INDEX
HX  - HEAT INDEX





USA.gov is the U.S. government's official web portal to all federal, state and local government web resources and services.